sat.trackr.live / text

‹ back to catalog

STARLINK-5901

NORAD 55999 · 2023-042P

PAYLOAD ACTIVE UNKNOWN

§ Identity

Operator
Country
US
Launch date
2023-03-24
Launch site
AFETR
Launch vehicle
Mass (kg)
RCS (m²)

Purposes: comms

External: N2YO · Heavens-Above · Gunter

§ Orbital elements

Epoch: 2026-09-20T09:13:39.871200Z

Period
94.27 min
Inclination
43.0034°
Eccentricity
0.0001835
Mean motion
15.27580247 rev/d
Perigee alt
481.8 km
Apogee alt
484.3 km
Semi-major
6,861.2 km
B*
4.3097e-6
RAAN
40.2260°
Arg perigee
257.9122°
Mean anomaly
102.1524°
Rev number
19,264

§ Raw data

STARLINK-59011 55999U 23042P   26263.38448925 -.00000144  00000+0  43097-5 0  99972 55999  43.0034  40.2260 0001835 257.9122 102.1524 15.27580247192640

JSON: /api/v1/satellites/55999 · /tle

For live sub-satellite position, see the globe view (requires WebGL).

§ Visibility from observer

Set your observer location to see the next 7 days of passes ≥ 10°. The values pass through the URL so the page stays shareable.

No JS? Fill the form by hand. The geolocation button needs JavaScript.